When you browse on this site, cookies collect data to enhance your experience and personalize the content and advertising you see.
Visit our Privacy Policy to learn more. By continuing to use the site, you agree to this use of cookies and data.
  • en France
  • Liste des pays
  • À 7 jours
  • Température de l'eau
  • Carte satellitaire
  • Carte météo
  • Widgets météo
  • user-avatar
    Se connecter

    Météo par heure à Bulolo

    Ce jour, 23 Mai, Jeudi

    Heure Température Précipitation Vent Pression Humidité
    00:00 +20°C° 0 mm 1 m/s 664 mmHg 97%
    01:00 +20°C° 0 mm 1 m/s 664 mmHg 97%
    02:00 +19°C° 0 mm 1 m/s 664 mmHg 97%
    03:00 +19°C° 0 mm 1 m/s 664 mmHg 96%
    04:00 +19°C° 0 mm 1 m/s 663 mmHg 96%
    05:00 +19°C° 0 mm 1 m/s 664 mmHg 94%
    06:00 +20°C° 0 mm 1 m/s 664 mmHg 93%
    07:00 +20°C° 0 mm 1 m/s 664 mmHg 92%
    08:00 +22°C° 0 mm 1 m/s 665 mmHg 83%
    09:00 +24°C° 0 mm 1 m/s 665 mmHg 74%
    10:00 +26°C° 0 mm 1 m/s 666 mmHg 67%
    11:00 +26°C° 0.1 mm 1 m/s 666 mmHg 66%
    12:00 +27°C° 0.1 mm 1 m/s 666 mmHg 65%
    13:00 +27°C° 0.1 mm 1 m/s 665 mmHg 63%
    14:00 +27°C° 0.2 mm 1 m/s 665 mmHg 67%
    15:00 +26°C° 0.2 mm 1 m/s 664 mmHg 71%
    16:00 +23°C° 0 mm 1 m/s 664 mmHg 81%
    17:00 +23°C° 0.2 mm 1 m/s 664 mmHg 85%
    18:00 +22°C° 0.2 mm 1 m/s 664 mmHg 90%
    19:00 +19°C° 0.2 mm 0 m/s 664 mmHg 95%
    20:00 +19°C° 0.1 mm 0 m/s 664 mmHg 94%
    21:00 +18°C° 0.1 mm 0 m/s 664 mmHg 94%
    22:00 +18°C° 0 mm 0 m/s 665 mmHg 95%
    23:00 +18°C° 0.1 mm 0 m/s 664 mmHg 94%

    Demain, 24 Mai, Vendredi

    Heure Température Précipitation Vent Pression Humidité
    00:00 +18°C° 0.1 mm 0 m/s 664 mmHg 94%
    01:00 +18°C° 0.1 mm 0 m/s 664 mmHg 94%
    02:00 +18°C° 0 mm 0 m/s 664 mmHg 94%
    03:00 +19°C° 0 mm 1 m/s 663 mmHg 94%
    04:00 +19°C° 0 mm 1 m/s 663 mmHg 94%
    05:00 +19°C° 0 mm 1 m/s 663 mmHg 93%
    06:00 +19°C° 0 mm 1 m/s 664 mmHg 92%
    07:00 +20°C° 0 mm 1 m/s 664 mmHg 92%
    08:00 +22°C° 0 mm 1 m/s 665 mmHg 83%
    09:00 +25°C° 0 mm 1 m/s 665 mmHg 74%
    10:00 +27°C° 0 mm 1 m/s 666 mmHg 64%
    11:00 +27°C° 0.5 mm 1 m/s 666 mmHg 65%
    12:00 +28°C° 0.5 mm 1 m/s 665 mmHg 65%
    13:00 +28°C° 0.5 mm 1 m/s 665 mmHg 66%
    14:00 +27°C° 1.1 mm 1 m/s 664 mmHg 71%
    15:00 +26°C° 1.1 mm 1 m/s 664 mmHg 77%
    16:00 +25°C° 1.1 mm 1 m/s 663 mmHg 82%
    17:00 +24°C° 0.8 mm 1 m/s 663 mmHg 87%
    18:00 +23°C° 0.8 mm 1 m/s 664 mmHg 92%
    19:00 +22°C° 0.8 mm 1 m/s 664 mmHg 96%
    20:00 +21°C° 0.3 mm 1 m/s 664 mmHg 97%
    21:00 +21°C° 0.3 mm 1 m/s 664 mmHg 97%
    22:00 +21°C° 0.3 mm 1 m/s 664 mmHg 97%
    23:00 +21°C° 0.3 mm 1 m/s 664 mmHg 97%

    Après-demain, 25 Mai, Samedi

    Heure Température Précipitation Vent Pression Humidité
    00:00 +19°C° 0.3 mm 0 m/s 664 mmHg 98%
    01:00 +18°C° 0.3 mm 0 m/s 664 mmHg 98%
    02:00 +18°C° 0.1 mm 0 m/s 664 mmHg 98%
    03:00 +18°C° 0.1 mm 0 m/s 663 mmHg 98%
    04:00 +18°C° 0.1 mm 0 m/s 663 mmHg 98%
    05:00 +18°C° 0 mm 0 m/s 663 mmHg 97%
    06:00 +18°C° 0 mm 0 m/s 664 mmHg 97%
    07:00 +18°C° 0 mm 0 m/s 664 mmHg 96%
    08:00 +22°C° 0 mm 1 m/s 664 mmHg 87%
    09:00 +24°C° 0 mm 1 m/s 665 mmHg 78%
    10:00 +26°C° 0 mm 1 m/s 666 mmHg 69%
    11:00 +27°C° 0.3 mm 1 m/s 665 mmHg 68%
    12:00 +27°C° 0.3 mm 1 m/s 665 mmHg 66%
    13:00 +27°C° 0.3 mm 1 m/s 664 mmHg 65%
    14:00 +27°C° 0.6 mm 1 m/s 664 mmHg 68%
    15:00 +26°C° 0.6 mm 1 m/s 663 mmHg 72%
    16:00 +26°C° 0.6 mm 1 m/s 663 mmHg 75%
    17:00 +24°C° 0.4 mm 1 m/s 663 mmHg 81%
    18:00 +23°C° 0.4 mm 1 m/s 663 mmHg 88%
    19:00 +21°C° 0.4 mm 1 m/s 663 mmHg 95%
    20:00 +21°C° 0.2 mm 1 m/s 664 mmHg 95%
    21:00 +21°C° 0.2 mm 1 m/s 664 mmHg 96%
    22:00 +21°C° 0.2 mm 1 m/s 664 mmHg 96%
    23:00 +18°C° 0 mm 0 m/s 664 mmHg 96%

    26 Mai, Dimanche

    Heure Température Précipitation Vent Pression Humidité
    00:00 +18°C° 0 mm 0 m/s 664 mmHg 97%
    01:00 +18°C° 0 mm 0 m/s 663 mmHg 97%
    02:00 +18°C° 0 mm 0 m/s 663 mmHg 96%
    03:00 +17°C° 0 mm 0 m/s 663 mmHg 96%
    04:00 +19°C° 0 mm 1 m/s 662 mmHg 96%
    05:00 +19°C° 0.1 mm 1 m/s 663 mmHg 94%
    06:00 +20°C° 0.1 mm 1 m/s 663 mmHg 93%
    07:00 +20°C° 0.1 mm 1 m/s 664 mmHg 92%
    08:00 +22°C° 0.2 mm 1 m/s 665 mmHg 83%
    09:00 +24°C° 0.2 mm 1 m/s 665 mmHg 74%
    10:00 +26°C° 0.2 mm 1 m/s 666 mmHg 65%
    11:00 +27°C° 0.5 mm 1 m/s 665 mmHg 67%
    12:00 +27°C° 0.5 mm 1 m/s 665 mmHg 69%
    13:00 +27°C° 0.5 mm 1 m/s 665 mmHg 72%
    14:00 +26°C° 1.4 mm 1 m/s 664 mmHg 76%
    15:00 +25°C° 1.4 mm 1 m/s 664 mmHg 81%
    16:00 +25°C° 1.4 mm 1 m/s 663 mmHg 85%
    17:00 +23°C° 1 mm 1 m/s 663 mmHg 89%
    18:00 +22°C° 1 mm 1 m/s 663 mmHg 93%
    19:00 +21°C° 1 mm 1 m/s 663 mmHg 96%
    20:00 +21°C° 0.3 mm 1 m/s 664 mmHg 97%
    21:00 +19°C° 0.3 mm 0 m/s 664 mmHg 97%
    22:00 +18°C° 0.3 mm 0 m/s 664 mmHg 97%
    23:00 +18°C° 0.4 mm 0 m/s 664 mmHg 97%

    27 Mai, Lundi

    Heure Température Précipitation Vent Pression Humidité
    00:00 +18°C° 0.4 mm 0 m/s 664 mmHg 97%
    01:00 +18°C° 0.4 mm 0 m/s 663 mmHg 97%
    02:00 +18°C° 0.6 mm 0 m/s 663 mmHg 97%
    03:00 +18°C° 0.6 mm 0 m/s 663 mmHg 96%
    04:00 +18°C° 0.6 mm 0 m/s 663 mmHg 96%
    05:00 +18°C° 0.6 mm 0 m/s 663 mmHg 96%
    06:00 +18°C° 0.6 mm 0 m/s 664 mmHg 96%
    07:00 +19°C° 0.6 mm 0 m/s 664 mmHg 95%
    08:00 +19°C° 0.8 mm 0 m/s 664 mmHg 93%
    09:00 +20°C° 0.8 mm 0 m/s 665 mmHg 90%
    10:00 +21°C° 0.8 mm 0 m/s 665 mmHg 88%
    11:00 +21°C° 2.4 mm 0 m/s 664 mmHg 90%
    12:00 +20°C° 2.4 mm 0 m/s 664 mmHg 92%
    13:00 +20°C° 2.4 mm 0 m/s 663 mmHg 94%
    14:00 +22°C° 2.5 mm 1 m/s 663 mmHg 94%
    15:00 +22°C° 2.5 mm 1 m/s 663 mmHg 94%
    16:00 +21°C° 2.5 mm 1 m/s 663 mmHg 94%
    17:00 +21°C° 0.4 mm 1 m/s 663 mmHg 95%
    18:00 +19°C° 0.4 mm 0 m/s 663 mmHg 95%
    19:00 +18°C° 0.4 mm 0 m/s 664 mmHg 96%
    20:00 +18°C° 0.3 mm 0 m/s 664 mmHg 96%
    21:00 +18°C° 0.3 mm 0 m/s 664 mmHg 96%
    22:00 +18°C° 0.3 mm 0 m/s 665 mmHg 96%
    23:00 +18°C° 0.4 mm 0 m/s 664 mmHg 96%

    28 Mai, Mardi

    Heure Température Précipitation Vent Pression Humidité
    00:00 +18°C° 0.4 mm 0 m/s 664 mmHg 96%
    01:00 +18°C° 0.4 mm 0 m/s 663 mmHg 96%
    02:00 +18°C° 0.4 mm 0 m/s 663 mmHg 95%
    03:00 +17°C° 0.4 mm 0 m/s 663 mmHg 95%
    04:00 +17°C° 0.4 mm 0 m/s 663 mmHg 95%
    05:00 +18°C° 0.3 mm 0 m/s 663 mmHg 95%
    06:00 +18°C° 0.3 mm 0 m/s 664 mmHg 94%
    07:00 +18°C° 0.3 mm 0 m/s 664 mmHg 94%
    08:00 +21°C° 0.3 mm 1 m/s 665 mmHg 89%
    09:00 +23°C° 0.3 mm 1 m/s 665 mmHg 85%
    10:00 +24°C° 0.3 mm 1 m/s 666 mmHg 81%
    11:00 +24°C° 0.9 mm 1 m/s 665 mmHg 80%
    12:00 +25°C° 0.9 mm 1 m/s 665 mmHg 80%
    13:00 +25°C° 0.9 mm 1 m/s 664 mmHg 80%
    14:00 +25°C° 1.4 mm 1 m/s 664 mmHg 82%
    15:00 +24°C° 1.4 mm 1 m/s 663 mmHg 85%
    16:00 +24°C° 1.4 mm 1 m/s 663 mmHg 87%
    17:00 +23°C° 1 mm 1 m/s 663 mmHg 90%
    18:00 +22°C° 1 mm 1 m/s 664 mmHg 94%
    19:00 +21°C° 1 mm 1 m/s 664 mmHg 97%
    20:00 +21°C° 1.1 mm 1 m/s 664 mmHg 97%
    21:00 +19°C° 1.1 mm 0 m/s 664 mmHg 97%
    22:00 +19°C° 1.1 mm 0 m/s 665 mmHg 97%
    23:00 +19°C° 3 mm 0 m/s 664 mmHg 97%
    Voir plus